Akron, New York, United States (14001)
Lat: 43.02N, Lon: 78.5W
Wx Zone: NYZ010
Local Info
Past Weather Observations for Today

NOTE: This archive is for the closest National Weather Service station to Akron. Information may differ from the station used for current weather conditions.

Click here for Long-term Archive

Time Weather Temperature Dewpoint Humidity Pressure Winds Precip Visibility
19:35
Overcast
Light Snow
21°F / -6°C 19°F / -7°C 93% 30.18 in
(1022 mb)
SW 6.9 mph
(SW 11 kph)
0.01 in
(0.25 mm)
2 1/2SM
19:27
Overcast
Light Snow
21°F / -6°C 19°F / -7°C 93% 30.18 in
(1022 mb)
SW 10.4 mph
(SW 17 kph)
0.00 in
(0.00 mm)
3SM
18:54
Overcast
Light Snow
21°F / -6°C 19°F / -7°C 93% 30.18 in
(1022 mb)
SW 9.2 mph
(SW 15 kph)
0.01 in
(0.25 mm)
2 1/2SM
18:13
Overcast
Light Snow
23°F / -5°C 19°F / -7°C 86% 30.18 in
(1022 mb)
SW 9.2 mph
(SW 15 kph)
0.00 in
(0.00 mm)
1SM
17:54
Obscured
Light Snow
23°F / -5°C 19°F / -7°C 86% 30.18 in
(1022 mb)
SW 9.2 mph
(SW 15 kph)
0.02 in
(0.51 mm)
1SM
17:40
Overcast
Light Snow
23°F / -5°C 19°F / -7°C 86% 30.18 in
(1022 mb)
SW 8.1 mph
(SW 13 kph)
0.01 in
(0.25 mm)
3/4SM
17:06
Overcast
Light Snow
25°F / -4°C 19°F / -7°C 80% 30.21 in
(1023 mb)
SW 6.9 mph
(SW 11 kph)
0.01 in
(0.25 mm)
1SM
16:54
Obscured
Light Snow
25°F / -4°C 21°F / -6°C 86% 30.18 in
(1022 mb)
SW 8.1 mph
(SW 13 kph)
0.02 in
(0.51 mm)
3/4SM
15:54
Overcast
Light Snow
25°F / -4°C 21°F / -6°C 86% 30.21 in
(1023 mb)
SW 5.8 mph
(SW 9 kph)
0.02 in
(0.51 mm)
3/4SM
15:26
Overcast
Light Snow
27°F / -3°C 21°F / -6°C 80% 30.21 in
(1023 mb)
W 4.6 mph
(W 7 kph)
0.01 in
(0.25 mm)
3/4SM
15:03
Overcast
Light Snow
27°F / -3°C 19°F / -7°C 74% 30.21 in
(1023 mb)
WNW 4.6 mph
(WNW 7 kph)
0.00 in
(0.00 mm)
1SM
14:54
Overcast
Light Snow
27°F / -3°C 19°F / -7°C 74% 30.24 in
(1024 mb)
SSW 3.5 mph
(SSW 6 kph)
0.00 in
(0.00 mm)
4SM
13:54
Overcast
Light Snow
27°F / -3°C 19°F / -7°C 74% 30.27 in
(1025 mb)
SSW 8.1 mph
(SSW 13 kph)
0.00 in
(0.00 mm)
9SM
12:54
Overcast
Light Snow
27°F / -3°C 19°F / -7°C 74% 30.3 in
(1026 mb)
SSW 6.9 mph
(SSW 11 kph)
0.00 in
(0.00 mm)
9SM
11:54
Overcast
Light Snow
25°F / -4°C 19°F / -7°C 80% 30.3 in
(1026 mb)
W 3.5 mph
(W 6 kph)
0.00 in
(0.00 mm)
3SM
11:22
Overcast
Light Snow
25°F / -4°C 18°F / -8°C 74% 30.33 in
(1027 mb)
SSW 5.8 mph
(SSW 9 kph)
0.00 in
(0.00 mm)
5SM
10:54
Overcast
Light Snow
23°F / -5°C 18°F / -8°C 80% 30.36 in
(1028 mb)
SSW 6.9 mph
(SSW 11 kph)
0.00 in
(0.00 mm)
5SM
10:14
Overcast
Light Snow
21°F / -6°C 18°F / -8°C 86% 30.36 in
(1028 mb)
SW 4.6 mph
(SW 7 kph)
0.00 in
(0.00 mm)
3SM
09:54
Overcast
Light Snow
21°F / -6°C 18°F / -8°C 86% 30.36 in
(1028 mb)
SW 3.5 mph
(SW 6 kph)
0.00 in
(0.00 mm)
3SM
08:54
Overcast
Light Snow
19°F / -7°C 16°F / -9°C 86% 30.39 in
(1029 mb)
Calm 0.01 in
(0.25 mm)
4SM
08:42
Overcast
Light Snow
19°F / -7°C 16°F / -9°C 86% 30.42 in
(1030 mb)
Calm 0.01 in
(0.25 mm)
4SM
08:27
Overcast
Light Snow
19°F / -7°C 16°F / -9°C 86% 30.42 in
(1030 mb)
Calm 0.01 in
(0.25 mm)
2SM
08:05
Overcast
Light Snow
18°F / -8°C 16°F / -9°C 93% 30.42 in
(1030 mb)
Calm 0.00 in
(0.00 mm)
1 1/2SM
07:54
Overcast
Light Snow
18°F / -8°C 14°F / -10°C 86% 30.42 in
(1030 mb)
Calm 0.00 in
(0.00 mm)
2 1/2SM
07:37
Overcast
Light Snow
18°F / -8°C 14°F / -10°C 86% 30.42 in
(1030 mb)
Calm 0.00 in
(0.00 mm)
2 1/2SM
06:54
Overcast
Light Snow
16°F / -9°C 12°F / -11°C 86% 30.45 in
(1031 mb)
S 3.5 mph
(S 6 kph)
0.02 in
(0.51 mm)
1SM
05:54
Overcast
Light Snow
16°F / -9°C 10°F / -12°C 79% 30.45 in
(1031 mb)
SSE 4.6 mph
(SSE 7 kph)
0.01 in
(0.25 mm)
1 1/4SM
05:43
Overcast
Light Snow
16°F / -9°C 10°F / -12°C 79% 30.48 in
(1032 mb)
SW 4.6 mph
(SW 7 kph)
0.01 in
(0.25 mm)
1 1/2SM
05:15
Overcast
Light Snow
16°F / -9°C 7°F / -14°C 67% 30.48 in
(1032 mb)
S 5.8 mph
(S 9 kph)
0.00 in
(0.00 mm)
2SM
05:10
Overcast
Light Snow
16°F / -9°C 5°F / -15°C 62% 30.48 in
(1032 mb)
S 5.8 mph
(S 9 kph)
0.00 in
(0.00 mm)
3SM
04:54
Overcast
Light Snow
16°F / -9°C 3°F / -16°C 57% 30.48 in
(1032 mb)
SSE 4.6 mph
(SSE 7 kph)
0.00 in
(0.00 mm)
6SM
03:54
Overcast
12°F / -11°C 3°F / -16°C 67% 30.51 in
(1033 mb)
SSE 3.5 mph
(SSE 6 kph)
- 10SM
02:54
Overcast
12°F / -11°C 1°F / -17°C 62% 30.51 in
(1033 mb)
Calm - 10SM
01:54
Mostly Cloudy
10°F / -12°C °F / -18°C 61% 30.54 in
(1034 mb)
Calm - 10SM
00:54
Mostly Cloudy
7°F / -14°C °F / -18°C 72% 30.54 in
(1034 mb)
E 5.8 mph
(E 9 kph)
- 10SM
Time Weather Temperature Dewpoint Humidity Pressure Winds Precip Visibility


Weather for websites

WeatherForYou.com, LLC is not responsible for any damages or problems caused by this service. Current weather conditions are obtained from the closest station including government and personal stations which may have varying degrees of accuracy. Weather forecasts are derived from the NOAA NDFD. Like all things, this site belongs to Jesus Christ... He just trusts me to maintain it. If you have any questions or comments email webmaster@weatherforyou.com

Copyright © 2015, WeatherForYou.com LLC. All rights reserved.